Location: Unspecified
(0.0000°N, 0.0000°E)
Time: 11:42:38
(UTC+00:00)

Envisat - Pass Details

Date: 18 January 2018
Orbit: 764 x 766 km, 98.2° (Epoch: 26 April)

Event Time Altitude Azimuth Distance (km) Brightness Sun altitude
Rises 19:40:29 0° 159° (SSE) 3,228 6.3 -21.0°
Reaches altitude 10° 19:42:51 10° 154° (SSE) 2,300 5.4 -21.6°
Enters shadow 19:47:10 49° 102° (ESE) 982 3.2 -22.6°
